RYR38KH LEAL-LEPA

Flight info

Callsign RYR38KH
Flight time 0h 33m
Altitude 24000
Route MITOS N851 RUXET
Aircraft B738/M-SDE2E3FGHIRWXY/LB1

Departure

Time 2026-05-07 07:16
Airport Alicante-Elche Miguel Hernández Airport (LEAL)

Arrival

Time 2026-05-07 07:49
Airport Palma de Mallorca Airport (LEPA)
Time Latitude Longitude Altitude Speed Heading
2026-05-07 07:01 38.28551 -0.55403 93 ft 0 kts 11°
2026-05-07 07:07 38.28545 -0.55404 93 ft 4 kts 11°
2026-05-07 07:07 38.28519 -0.55411 93 ft 4 kts
2026-05-07 07:08 38.28492 -0.55411 94 ft 4 kts 343°
2026-05-07 07:08 38.28471 -0.55395 92 ft 4 kts 300°
2026-05-07 07:08 38.28466 -0.55378 91 ft 1 kts 280°
2026-05-07 07:08 38.28465 -0.55376 91 ft 2 kts 280°
2026-05-07 07:10 38.28466 -0.55381 91 ft 3 kts 280°
2026-05-07 07:10 38.28472 -0.55427 93 ft 6 kts 280°
2026-05-07 07:11 38.28480 -0.55476 95 ft 6 kts 280°
2026-05-07 07:11 38.28478 -0.55534 98 ft 10 kts 250°
2026-05-07 07:11 38.28418 -0.55604 97 ft 13 kts 200°
2026-05-07 07:11 38.28376 -0.55685 99 ft 12 kts 277°
2026-05-07 07:12 38.28391 -0.55798 102 ft 15 kts 280°
2026-05-07 07:12 38.28414 -0.55964 104 ft 22 kts 280°
2026-05-07 07:12 38.28443 -0.56173 105 ft 26 kts 280°
2026-05-07 07:12 38.28477 -0.56409 112 ft 27 kts 280°
2026-05-07 07:13 38.28509 -0.56636 117 ft 25 kts 280°
2026-05-07 07:13 38.28539 -0.56848 125 ft 23 kts 280°
2026-05-07 07:13 38.28566 -0.57048 135 ft 23 kts 280°
2026-05-07 07:13 38.28593 -0.57237 143 ft 17 kts 280°
2026-05-07 07:14 38.28607 -0.57364 148 ft 13 kts 263°
2026-05-07 07:14 38.28545 -0.57430 151 ft 12 kts 192°
2026-05-07 07:14 38.28472 -0.57447 152 ft 6 kts 189°
2026-05-07 07:14 38.28443 -0.57423 150 ft 7 kts 105°
2026-05-07 07:15 38.28426 -0.57311 145 ft 32 kts 100°
2026-05-07 07:15 38.28343 -0.56710 119 ft 104 kts 100°
2026-05-07 07:15 38.28181 -0.55550 109 ft 158 kts 99°
2026-05-07 07:15 38.27960 -0.54159 617 ft 164 kts 99°
2026-05-07 07:16 38.27731 -0.52721 1281 ft 167 kts 100°
2026-05-07 07:16 38.27506 -0.51293 2079 ft 161 kts 99°
2026-05-07 07:16 38.27327 -0.49863 2584 ft 172 kts 88°
2026-05-07 07:16 38.27694 -0.48296 2771 ft 197 kts 60°
2026-05-07 07:17 38.28433 -0.46795 3169 ft 208 kts 59°
2026-05-07 07:17 38.29264 -0.45141 3290 ft 234 kts 58°
2026-05-07 07:17 38.30175 -0.43315 3674 ft 251 kts 59°
2026-05-07 07:17 38.31114 -0.41441 4317 ft 257 kts 59°
2026-05-07 07:18 38.32100 -0.39509 5006 ft 262 kts 59°
2026-05-07 07:18 38.33104 -0.37549 5700 ft 266 kts 60°
2026-05-07 07:18 38.33891 -0.35408 6410 ft 269 kts 70°
2026-05-07 07:18 38.34553 -0.33161 7086 ft 273 kts 71°
2026-05-07 07:19 38.35228 -0.30881 7783 ft 277 kts 70°
2026-05-07 07:19 38.35926 -0.28575 8520 ft 281 kts 70°
2026-05-07 07:19 38.36660 -0.26236 9260 ft 286 kts 69°
2026-05-07 07:19 38.37440 -0.23882 9989 ft 291 kts 68°
2026-05-07 07:20 38.38242 -0.21482 10393 ft 309 kts 68°
2026-05-07 07:20 38.39114 -0.18870 10586 ft 332 kts 68°
2026-05-07 07:20 38.40035 -0.16107 11055 ft 343 kts 68°
2026-05-07 07:20 38.40973 -0.13282 11752 ft 347 kts 68°
2026-05-07 07:21 38.41915 -0.10442 12556 ft 349 kts 68°
2026-05-07 07:21 38.42865 -0.07573 13344 ft 353 kts 68°
2026-05-07 07:21 38.43822 -0.04673 14070 ft 357 kts 68°
2026-05-07 07:21 38.44796 -0.01721 14672 ft 365 kts 68°
2026-05-07 07:22 38.45786 0.01317 15189 ft 375 kts 68°
2026-05-07 07:22 38.46775 0.04385 15797 ft 381 kts 69°
2026-05-07 07:22 38.47787 0.07537 16479 ft 387 kts 69°
2026-05-07 07:22 38.48818 0.10752 17054 ft 395 kts 69°
2026-05-07 07:23 38.49869 0.14030 17642 ft 402 kts 69°
2026-05-07 07:23 38.50939 0.17371 18231 ft 409 kts 69°
2026-05-07 07:23 38.52025 0.20761 18774 ft 415 kts 69°
2026-05-07 07:23 38.53121 0.24187 19375 ft 418 kts 69°
2026-05-07 07:24 38.54226 0.27642 19961 ft 423 kts 69°
2026-05-07 07:24 38.55342 0.31139 20519 ft 427 kts 69°
2026-05-07 07:24 38.56468 0.34671 21067 ft 432 kts 70°
2026-05-07 07:24 38.57605 0.38243 21589 ft 437 kts 70°
2026-05-07 07:25 38.59897 0.45450 22836 ft 441 kts 70°
2026-05-07 07:25 38.61058 0.49108 23307 ft 446 kts 70°
2026-05-07 07:25 38.62233 0.52805 23789 ft 449 kts 70°
2026-05-07 07:26 38.63400 0.56473 23934 ft 453 kts 70°
2026-05-07 07:26 38.64596 0.60231 23940 ft 458 kts 70°
2026-05-07 07:26 38.65794 0.64004 23962 ft 456 kts 70°
2026-05-07 07:26 38.66944 0.67773 23949 ft 452 kts 75°
2026-05-07 07:27 38.67604 0.71682 23957 ft 447 kts 84°
2026-05-07 07:27 38.68029 0.75615 23953 ft 446 kts 86°
2026-05-07 07:27 38.68401 0.79567 23942 ft 451 kts 86°
2026-05-07 07:27 38.68775 0.83575 23960 ft 456 kts 86°
2026-05-07 07:28 38.69168 0.87601 23952 ft 455 kts 85°
2026-05-07 07:28 38.69580 0.91616 23944 ft 454 kts 85°
2026-05-07 07:28 38.70006 0.95619 23946 ft 453 kts 85°
2026-05-07 07:28 38.70438 0.99612 23945 ft 452 kts 85°
2026-05-07 07:29 38.70874 1.03597 23949 ft 452 kts 85°
2026-05-07 07:29 38.71313 1.07578 23945 ft 452 kts 85°
2026-05-07 07:29 38.71749 1.11569 23947 ft 452 kts 85°
2026-05-07 07:29 38.72177 1.15513 23926 ft 453 kts 85°
2026-05-07 07:30 38.72608 1.19519 23934 ft 455 kts 85°
2026-05-07 07:30 38.73039 1.23549 23940 ft 457 kts 85°
2026-05-07 07:30 38.73469 1.27583 23944 ft 459 kts 85°
2026-05-07 07:30 38.73901 1.31644 23945 ft 460 kts 85°
2026-05-07 07:31 38.74332 1.35716 23943 ft 461 kts 85°
2026-05-07 07:31 38.74760 1.39760 23877 ft 453 kts 85°
2026-05-07 07:31 38.75181 1.43741 23468 ft 448 kts 85°
2026-05-07 07:31 38.75596 1.47685 22963 ft 444 kts 85°
2026-05-07 07:32 38.76004 1.51587 22473 ft 440 kts 85°
2026-05-07 07:32 38.76407 1.55460 21959 ft 436 kts 85°
2026-05-07 07:32 38.76800 1.59245 21485 ft 432 kts 85°
2026-05-07 07:32 38.77193 1.63049 20993 ft 429 kts 85°
2026-05-07 07:33 38.77581 1.66821 20511 ft 425 kts 85°
2026-05-07 07:33 38.77966 1.70567 20038 ft 422 kts 84°
2026-05-07 07:33 38.78345 1.74281 19565 ft 418 kts 84°
2026-05-07 07:33 38.78721 1.77965 19092 ft 415 kts 84°
2026-05-07 07:34 38.79092 1.81614 18631 ft 411 kts 84°
2026-05-07 07:34 38.79460 1.85239 18163 ft 408 kts 84°
2026-05-07 07:34 38.79824 1.88819 17623 ft 399 kts 84°
2026-05-07 07:34 38.80387 1.92207 17148 ft 390 kts 68°
2026-05-07 07:35 38.81721 1.95155 16889 ft 378 kts 52°
2026-05-07 07:35 38.83325 1.97800 16641 ft 373 kts 51°
2026-05-07 07:35 38.84934 2.00383 16370 ft 369 kts 51°
2026-05-07 07:35 38.86537 2.02956 15963 ft 368 kts 51°
2026-05-07 07:36 38.88123 2.05526 15541 ft 366 kts 51°
2026-05-07 07:36 38.89695 2.08097 15101 ft 365 kts 52°
2026-05-07 07:36 38.91255 2.10664 14659 ft 364 kts 52°
2026-05-07 07:36 38.92807 2.13231 14223 ft 363 kts 52°
2026-05-07 07:37 38.94353 2.15792 13780 ft 362 kts 52°
2026-05-07 07:37 38.95893 2.18348 13296 ft 361 kts 52°
2026-05-07 07:37 38.97425 2.20893 12809 ft 360 kts 52°
2026-05-07 07:37 38.98951 2.23430 12356 ft 357 kts 52°
2026-05-07 07:38 39.00449 2.25921 11918 ft 355 kts 52°
2026-05-07 07:38 39.01977 2.28462 11472 ft 353 kts 52°
2026-05-07 07:38 39.03455 2.30922 11104 ft 346 kts 52°
2026-05-07 07:38 39.04908 2.33341 10734 ft 337 kts 52°
2026-05-07 07:39 39.06315 2.35686 10531 ft 323 kts 52°
2026-05-07 07:39 39.07668 2.37942 10388 ft 314 kts 52°
2026-05-07 07:39 39.08982 2.40137 10256 ft 305 kts 52°
2026-05-07 07:39 39.10251 2.42276 10129 ft 297 kts 53°
2026-05-07 07:40 39.11489 2.44357 10020 ft 288 kts 52°
2026-05-07 07:40 39.12701 2.46376 9821 ft 284 kts 52°
2026-05-07 07:40 39.13901 2.48381 9576 ft 280 kts 53°
2026-05-07 07:40 39.15097 2.50328 9414 ft 276 kts 47°
2026-05-07 07:41 39.16684 2.51712 9031 ft 279 kts 19°
2026-05-07 07:41 39.18605 2.52030 8666 ft 281 kts 356°
2026-05-07 07:41 39.20556 2.51741 8269 ft 284 kts 353°
2026-05-07 07:41 39.22486 2.51370 7833 ft 282 kts 352°
2026-05-07 07:42 39.24421 2.50975 7388 ft 279 kts 353°
2026-05-07 07:42 39.26327 2.50565 6953 ft 276 kts 352°
2026-05-07 07:42 39.28208 2.50132 6510 ft 274 kts 351°
2026-05-07 07:42 39.30077 2.49695 6061 ft 272 kts 352°
2026-05-07 07:43 39.31921 2.49259 5692 ft 267 kts 353°
2026-05-07 07:43 39.33730 2.48828 5366 ft 261 kts 351°
2026-05-07 07:43 39.35494 2.48410 5111 ft 256 kts 352°
2026-05-07 07:43 39.37236 2.48007 4881 ft 252 kts 356°
2026-05-07 07:44 39.38940 2.48263 4643 ft 244 kts 24°
2026-05-07 07:44 39.40416 2.49222 4491 ft 237 kts 31°
2026-05-07 07:44 39.41831 2.50249 4258 ft 229 kts 32°
2026-05-07 07:44 39.43194 2.51244 3988 ft 221 kts 32°
2026-05-07 07:45 39.44498 2.52195 3643 ft 211 kts 32°
2026-05-07 07:45 39.45764 2.53115 3223 ft 206 kts 33°
2026-05-07 07:45 39.46801 2.54290 2965 ft 193 kts 56°
2026-05-07 07:45 39.47517 2.55726 2747 ft 187 kts 60°
2026-05-07 07:46 39.48176 2.57152 2484 ft 181 kts 60°
2026-05-07 07:46 39.48806 2.58503 2257 ft 169 kts 60°
2026-05-07 07:46 39.49392 2.59762 2030 ft 157 kts 60°
2026-05-07 07:46 39.49932 2.60932 1853 ft 144 kts 59°
2026-05-07 07:47 39.50447 2.62027 1643 ft 141 kts 59°
2026-05-07 07:47 39.50956 2.63084 1432 ft 137 kts 60°
2026-05-07 07:47 39.51452 2.64138 1224 ft 138 kts 60°
2026-05-07 07:47 39.51935 2.65196 1046 ft 136 kts 59°
2026-05-07 07:48 39.52433 2.66246 851 ft 138 kts 59°
2026-05-07 07:48 39.52923 2.67296 684 ft 134 kts 59°
2026-05-07 07:48 39.53402 2.68303 504 ft 129 kts 58°
2026-05-07 07:48 39.53719 2.68973 412 ft 131 kts 60°
2026-05-07 07:49 39.54193 2.69972 254 ft 133 kts 59°
2026-05-07 07:49 39.54680 2.71001 65 ft 134 kts 59°
2026-05-07 07:49 39.55138 2.71971 27 ft 110 kts 58°
2026-05-07 07:49 39.55398 2.72518 27 ft 47 kts 59°
2026-05-07 07:50 39.55483 2.72761 30 ft 24 kts 76°
2026-05-07 07:50 39.55495 2.72914 31 ft 13 kts 88°
2026-05-07 07:50 39.55496 2.72948 31 ft 0 kts 87°
2026-05-07 07:51 39.55496 2.72952 31 ft 2 kts 87°
2026-05-07 07:51 39.55497 2.73010 31 ft 10 kts 90°
2026-05-07 07:51 39.55500 2.73122 31 ft 15 kts 84°
2026-05-07 07:51 39.55535 2.73253 31 ft 17 kts 61°
2026-05-07 07:52 39.55601 2.73393 32 ft 17 kts 58°
2026-05-07 07:52 39.55609 2.73501 32 ft 13 kts 141°
2026-05-07 07:52 39.55517 2.73580 33 ft 20 kts 147°
2026-05-07 07:52 39.55311 2.73747 31 ft 40 kts 148°
2026-05-07 07:53 39.55088 2.73918 32 ft 34 kts 147°
2026-05-07 07:53 39.54904 2.74068 32 ft 27 kts 149°
2026-05-07 07:53 39.54787 2.74104 30 ft 16 kts 224°
2026-05-07 07:53 39.54719 2.73977 33 ft 19 kts 236°
2026-05-07 07:54 39.54646 2.73823 31 ft 21 kts 238°
2026-05-07 07:54 39.54587 2.73669 34 ft 16 kts 281°
2026-05-07 07:54 39.54643 2.73557 34 ft 15 kts 297°
2026-05-07 07:54 39.54714 2.73475 34 ft 11 kts 295°
2026-05-07 07:55 39.54695 2.73409 35 ft 0 kts 239°